LA6LOA Weather Reports


Display with metric or nautical units.
time (UTC)temp
F
wind
direction
speed
MPH
gust
MPH
rain 1hr
in
rain 24hr
in
rain mn
in
humidity
%
barometer
mb
20260507133054 41 306 10.0 12.0 0.00 0.00 0.00 100 1015.0
20260507132554 42 313 7.0 12.0 0.00 0.00 0.00 100 1014.9
20260507132054 42 299 9.0 13.0 0.00 0.00 0.00 100 1014.8
20260507131554 42 303 7.0 13.0 0.00 0.00 0.00 100 1014.8
20260507131054 42 289 10.0 13.0 0.00 0.00 0.00 100 1014.8
20260507130554 42 285 9.0 14.0 0.00 0.00 0.00 100 1014.8
20260507130054 42 291 10.0 15.0 0.00 0.00 0.00 100 1014.8
20260507125554 43 286 10.0 15.0 0.00 0.00 0.00 100 1014.6
20260507125054 43 271 11.0 16.0 0.00 0.00 0.00 100 1014.5
20260507124554 43 268 13.0 16.0 0.00 0.00 0.00 100 1014.4
20260507124054 43 292 10.0 19.0 0.00 0.00 0.00 100 1014.3
20260507123554 44 292 11.0 20.0 0.00 0.00 0.00 100 1014.3
20260507123054 44 288 13.0 19.0 0.00 0.00 0.00 100 1014.2
20260507122554 43 324 8.0 19.0 0.00 0.00 0.00 100 1014.1
20260507122054 44 286 12.0 16.0 0.00 0.00 0.00 100 1013.9
20260507121554 44 279 15.0 19.0 0.00 0.00 0.00 100 1013.9
20260507121054 45 281 9.0 15.0 0.00 0.00 0.00 100 1013.9
20260507120555 45 271 11.0 18.0 0.00 0.00 0.00 100 1013.9
20260507120054 45 307 9.0 13.0 0.00 0.00 0.00 100 1013.8
20260507115554 46 230 7.0 13.0 0.00 0.00 0.00 100 1013.8
20260507115054 46 209 7.0 14.0 0.00 0.00 0.00 100 1013.6
20260507114554 45 153 9.0 13.0 0.00 0.00 0.00 100 1013.5
20260507114054 44 212 7.0 11.0 0.00 0.00 0.00 100 1013.5
20260507113554 44 135 5.0 12.0 0.00 0.00 0.00 100 1013.4
20260507113054 45 177 7.0 9.0 0.00 0.00 0.00 100 1013.3
20260507112554 45 181 6.0 11.0 0.00 0.00 0.00 100 1013.2
20260507112054 45 147 0.0 14.0 0.00 0.00 0.00 100 1013.2
20260507111554 45 167 5.0 12.0 0.00 0.00 0.00 100 1013.1
20260507111054 45 151 8.0 15.0 0.00 0.00 0.00 100 1013.1
20260507110554 45 174 9.0 14.0 0.00 0.00 0.00 100 1013.0
20260507110054 45 192 9.0 14.0 0.00 0.00 0.00 100 1013.1
20260507105555 45 120 4.0 12.0 0.00 0.00 0.00 100 1013.0
20260507105055 45 226 8.0 13.0 0.00 0.00 0.00 100 1013.0
20260507104555 45 189 8.0 12.0 0.00 0.00 0.00 100 1013.0
20260507104055 45 164 6.0 12.0 0.00 0.00 0.00 100 1013.0
20260507103555 45 156 6.0 11.0 0.00 0.00 0.00 100 1013.1
20260507103055 45 156 4.0 8.0 0.00 0.00 0.00 100 1013.1
20260507102555 45 182 6.0 9.0 0.00 0.00 0.00 100 1013.1
20260507102055 45 94 1.0 6.0 0.00 0.00 0.00 100 1013.2
20260507101555 45 116 0.0 7.0 0.00 0.00 0.00 100 1013.2
20260507101055 44 129 1.0 7.0 0.00 0.00 0.00 100 1013.2
20260507100555 44 258 0.0 0.0 0.00 0.00 0.00 100 1013.2
20260507100055 45 258 0.0 0.0 0.00 0.00 0.00 100 1013.2
20260507095555 46 258 0.0 0.0 0.00 0.00 0.00 100 1013.2
20260507095055 45 258 0.0 5.0 0.00 0.00 0.00 100 1013.4
20260507094555 45 303 4.0 5.0 0.00 0.00 0.00 100 1013.4
20260507094055 45 320 4.0 8.0 0.00 0.00 0.00 100 1013.4
20260507093555 45 113 2.0 10.0 0.00 0.00 0.00 100 1013.5
20260507093055 45 215 7.0 11.0 0.00 0.00 0.00 100 1013.4
20260507092555 46 241 10.0 12.0 0.00 0.00 0.00 100 1013.2
20260507092055 47 312 1.0 12.0 0.00 0.00 0.00 100 1013.3
20260507091555 47 250 7.0 13.0 0.00 0.00 0.00 100 1013.2
20260507091055 48 140 9.0 12.0 0.00 0.00 0.00 100 1013.2
20260507090555 48 161 4.0 13.0 0.00 0.00 0.00 100 1013.2
20260507090055 47 137 0.0 11.0 0.00 0.00 0.00 100 1013.3
20260507085555 46 229 11.0 11.0 0.00 0.00 0.00 100 1013.3
20260507085055 47 216 2.0 8.0 0.00 0.00 0.00 100 1013.2
20260507084555 46 118 0.0 12.0 0.00 0.00 0.00 100 1013.2
20260507084055 46 223 0.0 9.0 0.00 0.00 0.00 100 1013.2
20260507083555 46 188 8.0 8.0 0.00 0.00 0.00 100 1013.1
20260507083055 46 188 6.0 12.0 0.00 0.00 0.00 100 1013.1
20260507082555 46 192 7.0 11.0 0.00 0.00 0.00 100 1013.0
20260507082055 46 182 5.0 11.0 0.00 0.00 0.00 100 1013.0
20260507081555 46 187 5.0 10.0 0.00 0.00 0.00 100 1012.9
20260507081055 46 126 4.0 13.0 0.00 0.00 0.00 100 1012.9
20260507080555 46 201 9.0 9.0 0.00 0.00 0.00 100 1012.9
20260507080055 46 125 9.0 10.0 0.00 0.00 0.00 100 1012.8
20260507075555 46 182 7.0 9.0 0.00 0.00 0.00 100 1012.7
20260507075055 46 181 6.0 8.0 0.00 0.00 0.00 100 1012.7
20260507074555 46 182 7.0 9.0 0.00 0.00 0.00 100 1012.6
20260507074055 46 180 5.0 9.0 0.00 0.00 0.00 100 1012.6
20260507073555 46 202 4.0 10.0 0.00 0.00 0.00 100 1012.5
20260507073055 46 198 7.0 11.0 0.00 0.00 0.00 100 1012.5
20260507072555 46 187 8.0 9.0 0.00 0.00 0.00 100 1012.4
20260507072055 45 164 1.0 9.0 0.00 0.00 0.00 100 1012.3
20260507071555 45 191 8.0 8.0 0.00 0.00 0.00 100 1012.2
20260507071055 44 157 1.0 10.0 0.00 0.00 0.00 100 1012.1
20260507070555 45 149 5.0 9.0 0.00 0.00 0.00 100 1011.9
20260507070055 45 157 5.0 7.0 0.00 0.00 0.00 100 1011.8
20260507065555 44 194 6.0 7.0 0.00 0.00 0.00 100 1011.6
20260507065055 44 178 6.0 8.0 0.00 0.00 0.00 100 1011.4
20260507064555 43 153 8.0 8.0 0.00 0.00 0.00 100 1011.2
20260507064055 43 158 6.0 9.0 0.00 0.00 0.00 100 1011.1
20260507063555 43 157 5.0 9.0 0.00 0.00 0.00 100 1011.0
20260507063055 42 160 6.0 9.0 0.00 0.00 0.00 100 1011.0
20260507062555 43 136 7.0 8.0 0.00 0.00 0.00 100 1010.9
20260507062055 42 158 1.0 9.0 0.00 0.00 0.00 100 1010.9
20260507061556 43 217 4.0 7.0 0.00 0.00 0.00 100 1010.8
20260507061055 42 136 2.0 7.0 0.00 0.00 0.00 100 1010.8
20260507060556 42 199 4.0 6.0 0.00 0.00 0.00 100 1010.8
20260507060056 43 104 1.0 7.0 0.00 0.00 0.00 100 1010.7
20260507055556 42 192 6.0 7.0 0.00 0.00 0.00 100 1010.6
20260507055056 42 150 5.0 8.0 0.00 0.00 0.00 100 1010.6
20260507054556 42 153 4.0 5.0 0.00 0.00 0.00 100 1010.6
20260507054056 42 143 0.0 5.0 0.00 0.00 0.00 100 1010.6
20260507053556 42 161 1.0 6.0 0.00 0.00 0.00 100 1010.5
20260507053056 42 167 0.0 5.0 0.00 0.00 0.00 100 1010.5
20260507052556 42 142 1.0 9.0 0.00 0.00 0.00 100 1010.4
20260507052056 41 153 6.0 8.0 0.00 0.00 0.00 100 1010.4
20260507051556 41 144 1.0 7.0 0.00 0.00 0.00 100 1010.4
20260507051056 41 198 1.0 8.0 0.00 0.00 0.00 100 1010.4
20260507050556 41 164 0.0 0.0 0.00 0.00 0.00 100 1010.3
20260507050056 41 164 0.0 6.0 0.00 0.00 0.00 100 1010.4
20260507045556 41 119 0.0 8.0 0.00 0.00 0.00 100 1010.3
20260507045056 41 143 6.0 7.0 0.00 0.00 0.00 100 1010.3
20260507044556 41 165 6.0 6.0 0.00 0.00 0.00 100 1010.3
20260507044056 42 198 1.0 7.0 0.00 0.00 0.00 100 1010.2
20260507043556 42 208 0.0 8.0 0.00 0.00 0.00 100 1010.2
20260507043056 43 147 0.0 8.0 0.00 0.00 0.00 100 1010.2
20260507042556 43 205 4.0 9.0 0.00 0.00 0.00 100 1010.1
20260507042056 42 174 0.0 9.0 0.00 0.00 0.00 100 1010.1
20260507041556 42 206 5.0 8.0 0.00 0.00 0.00 100 1010.1
20260507041056 42 191 1.0 9.0 0.00 0.00 0.00 100 1010.1
20260507040556 41 201 0.0 9.0 0.00 0.00 0.00 100 1010.1
20260507040056 42 184 0.0 8.0 0.00 0.00 0.00 100 1010.0
20260507035556 41 158 5.0 9.0 0.00 0.00 0.00 100 1010.0
20260507035056 40 201 8.0 8.0 0.00 0.00 0.00 100 1010.0
20260507034556 40 135 0.0 11.0 0.00 0.00 0.00 100 1010.0
20260507034056 39 123 4.0 10.0 0.00 0.00 0.00 100 1010.0
20260507033556 39 149 1.0 8.0 0.00 0.00 0.00 100 1009.9
20260507033056 38 205 5.0 12.0 0.00 0.00 0.00 100 1010.0
20260507032556 38 123 1.0 13.0 0.00 0.00 0.00 100 1009.9
20260507032056 38 147 0.0 10.0 0.00 0.00 0.00 100 1009.9
20260507031556 38 156 5.0 11.0 0.00 0.00 0.00 100 1009.9
20260507031056 38 195 4.0 15.0 0.00 0.00 0.00 100 1009.9
20260507030556 38 154 5.0 14.0 0.00 0.00 0.00 100 1009.9
20260507030056 38 181 10.0 15.0 0.00 0.00 0.00 100 1009.8
20260507025556 38 185 6.0 13.0 0.00 0.00 0.00 100 1009.8
20260507025056 37 174 10.0 13.0 0.00 0.00 0.00 100 1009.7
20260507024556 37 156 8.0 13.0 0.00 0.00 0.00 100 1009.7
20260507024056 37 198 12.0 14.0 0.00 0.00 0.00 100 1009.7
20260507023556 37 178 6.0 10.0 0.00 0.00 0.00 100 1009.7
20260507023056 37 187 5.0 12.0 0.00 0.00 0.00 100 1009.7
20260507022556 37 153 5.0 11.0 0.00 0.00 0.00 100 1009.7
20260507022056 37 140 6.0 15.0 0.00 0.00 0.00 100 1009.7
20260507021556 37 195 9.0 14.0 0.00 0.00 0.00 100 1009.7
20260507021056 37 185 6.0 12.0 0.00 0.00 0.00 100 1009.6
20260507020556 37 188 4.0 8.0 0.00 0.00 0.00 100 1009.7
20260507020056 37 198 4.0 11.0 0.00 0.00 0.00 100 1009.7
20260507015556 37 170 7.0 14.0 0.00 0.00 0.00 100 1009.7
20260507015056 37 59 5.0 12.0 0.00 0.00 0.00 100 1009.7
20260507014556 37 164 7.0 13.0 0.00 0.00 0.00 100 1009.7
20260507014056 37 122 4.0 9.0 0.00 0.00 0.00 100 1009.7
20260507013556 37 106 1.0 11.0 0.00 0.00 0.00 100 1009.7
20260507013056 37 163 1.0 10.0 0.00 0.00 0.00 100 1009.7
20260507012557 37 170 7.0 12.0 0.00 0.00 0.00 100 1009.6
20260507012057 37 157 6.0 12.0 0.00 0.00 0.00 100 1009.6
20260507011557 37 154 6.0 14.0 0.00 0.00 0.00 100 1009.5
20260507011057 37 151 5.0 14.0 0.00 0.00 0.00 100 1009.5
20260507010557 37 223 6.0 13.0 0.00 0.00 0.00 100 1009.5
20260507010057 37 127 5.0 8.0 0.00 0.00 0.00 100 1009.5
20260507005557 37 81 0.0 11.0 0.00 0.00 0.00 100 1009.5
20260507005057 36 195 8.0 14.0 0.00 0.00 0.00 100 1009.5
20260507004557 36 142 6.0 8.0 0.00 0.00 0.00 100 1009.5
20260507004057 37 146 1.0 10.0 0.00 0.00 0.00 100 1009.4
20260507003557 37 212 0.0 9.0 0.00 0.00 0.00 100 1009.5
20260507003057 37 105 0.0 6.0 0.00 0.00 0.00 100 1009.4
20260507002557 36 73 0.0 6.0 0.00 0.00 0.00 100 1009.4
20260507002057 37 164 0.0 9.0 0.00 0.00 0.00 100 1009.4
20260507001557 36 129 6.0 7.0 0.00 0.00 0.00 100 1009.4
20260507001057 36 132 0.0 6.0 0.00 0.00 0.00 100 1009.4
20260507000557 36 220 0.0 9.0 0.00 0.00 0.00 100 1009.3
20260507000057 36 210 5.0 7.0 0.00 0.00 0.00 100 1009.3
20260506235557 36 168 1.0 7.0 0.00 0.00 0.00 100 1009.3
20260506235057 36 146 0.0 11.0 0.00 0.00 0.00 100 1009.3
20260506234623 36 139 1.0 5.0 0.00 0.00 0.00 100 1009.3
20260506234057 36 196 0.0 1.0 0.00 0.00 0.00 100 1009.3
20260506233557 36 146 0.0 6.0 0.00 0.00 0.00 100 1009.2
20260506233057 36 154 5.0 9.0 0.00 0.00 0.00 100 1009.2
20260506232557 36 172 1.0 7.0 0.00 0.00 0.00 100 1009.2
20260506232057 36 160 0.0 9.0 0.00 0.00 0.00 100 1009.1
20260506231557 36 167 6.0 10.0 0.00 0.00 0.00 100 1009.2
20260506231057 35 163 0.0 6.0 0.00 0.00 0.00 100 1009.1
20260506230557 35 161 2.0 7.0 0.00 0.00 0.00 100 1009.1
20260506230057 35 161 0.0 0.0 0.00 0.00 0.00 100 1009.1
20260506225557 35 161 0.0 8.0 0.00 0.00 0.00 100 1009.0
20260506225057 35 177 4.0 8.0 0.00 0.00 0.00 100 1009.0
20260506224557 34 101 0.0 4.0 0.00 0.00 0.00 100 1009.0
20260506224057 34 127 1.0 6.0 0.00 0.00 0.00 100 1009.1
20260506223557 34 104 0.0 5.0 0.00 0.00 0.00 100 1009.0
20260506223057 34 144 1.0 5.0 0.00 0.00 0.00 100 1009.1
20260506222557 33 147 1.0 5.0 0.00 0.00 0.00 100 1009.0
20260506222057 34 355 0.0 0.0 0.00 0.00 0.00 100 1009.1
20260506221557 34 355 0.0 0.0 0.00 0.00 0.00 100 1009.1
20260506221057 34 355 0.0 0.0 0.00 0.00 0.00 100 1009.1
20260506220557 34 355 0.0 0.0 0.00 0.00 0.00 100 1009.1
20260506220057 34 355 0.0 0.0 0.00 0.00 0.00 100 1009.1
20260506215557 34 355 0.0 0.0 0.00 0.00 0.00 100 1009.1
20260506215057 34 355 0.0 0.0 0.00 0.00 0.00 100 1009.1
20260506214557 34 355 0.0 0.0 0.00 0.00 0.00 100 1009.1
20260506214057 34 355 0.0 0.0 0.00 0.00 0.00 100 1009.1
20260506213557 34 355 0.0 0.0 0.00 0.00 0.00 100 1009.1
20260506213057 34 355 0.0 0.0 0.00 0.00 0.00 100 1009.1
20260506212557 34 355 0.0 0.0 0.00 0.00 0.00 100 1009.1
20260506212057 34 355 0.0 0.0 0.00 0.00 0.00 100 1009.2
20260506211557 34 355 0.0 0.0 0.00 0.00 0.00 100 1009.2
20260506211058 34 355 0.0 0.0 0.00 0.00 0.00 100 1009.2
20260506210557 34 355 0.0 0.0 0.00 0.00 0.00 100 1009.3
20260506210057 35 355 0.0 0.0 0.00 0.00 0.00 100 1009.4
20260506205558 35 355 0.0 0.0 0.00 0.00 0.00 100 1009.5
20260506205057 35 355 0.0 0.0 0.00 0.00 0.00 100 1009.6
20260506204558 35 355 0.0 0.0 0.00 0.00 0.00 100 1009.7
20260506204058 35 355 0.0 0.0 0.00 0.00 0.00 100 1009.8
20260506203558 35 355 0.0 0.0 0.00 0.00 0.00 100 1009.8
20260506203058 36 355 0.0 0.0 0.00 0.00 0.00 100 1009.8
20260506202558 36 355 0.0 0.0 0.00 0.00 0.00 100 1009.8
20260506202058 36 355 0.0 0.0 0.00 0.00 0.00 100 1009.7
20260506201558 38 355 0.0 0.0 0.00 0.00 0.00 100 1009.7
20260506201058 38 355 0.0 0.0 0.00 0.00 0.00 100 1009.7
20260506200558 39 355 0.0 0.0 0.00 0.00 0.00 100 1009.7
20260506200058 39 355 0.0 0.0 0.00 0.00 0.00 100 1009.8
20260506195558 40 355 0.0 0.0 0.00 0.00 0.00 100 1009.8
20260506195058 40 355 0.0 0.0 0.00 0.00 0.00 100 1009.7
20260506194558 40 355 0.0 0.0 0.00 0.00 0.00 100 1009.7
20260506194058 41 355 0.0 0.0 0.00 0.00 0.00 100 1009.7
20260506193558 40 355 0.0 0.0 0.00 0.00 0.00 100 1009.7
20260506193058 41 355 0.0 0.0 0.00 0.00 0.00 100 1009.7
20260506192558 41 355 0.0 0.0 0.00 0.00 0.00 100 1009.7
20260506192058 41 355 0.0 0.0 0.00 0.00 0.00 100 1009.6
20260506191558 41 355 0.0 0.0 0.00 0.00 0.00 100 1009.6
20260506191058 41 355 0.0 0.0 0.00 0.00 0.00 100 1009.5
20260506190558 41 355 0.0 0.0 0.00 0.00 0.00 100 1009.6
20260506190058 41 355 0.0 0.0 0.00 0.00 0.00 100 1009.5
20260506185558 41 355 0.0 0.0 0.00 0.00 0.00 100 1009.5
20260506185058 41 355 0.0 6.0 0.00 0.00 0.00 100 1009.5
20260506184558 41 326 0.0 0.0 0.00 0.00 0.00 100 1009.5
20260506184058 42 326 0.0 4.0 0.00 0.00 0.00 100 1009.5
20260506183558 41 327 0.0 5.0 0.00 0.00 0.00 100 1009.4
20260506183058 41 333 5.0 6.0 0.00 0.00 0.00 100 1009.5
20260506182558 41 354 5.0 7.0 0.00 0.00 0.00 100 1009.4
20260506182058 41 343 6.0 7.0 0.00 0.00 0.00 100 1009.5
20260506181558 41 327 5.0 6.0 0.00 0.00 0.00 100 1009.5
20260506181058 41 337 5.0 7.0 0.00 0.00 0.00 100 1009.4
20260506180558 41 341 5.0 7.0 0.00 0.00 0.00 100 1009.4
20260506180058 41 351 6.0 8.0 0.00 0.00 0.00 100 1009.4
20260506175558 41 334 7.0 7.0 0.00 0.00 0.00 100 1009.4
20260506175058 41 352 6.0 8.0 0.00 0.00 0.00 100 1009.4
20260506174558 41 331 7.0 8.0 0.00 0.00 0.00 100 1009.5
20260506174058 41 338 6.0 7.0 0.00 0.00 0.00 100 1009.5
20260506173558 41 345 6.0 6.0 0.00 0.00 0.00 100 1009.4
20260506173058 41 0 6.0 8.0 0.00 0.00 0.00 100 1009.4
20260506172558 41 348 8.0 9.0 0.00 0.00 0.00 100 1009.4
20260506172058 41 344 8.0 10.0 0.00 0.00 0.00 100 1009.3
20260506171558 41 348 7.0 8.0 0.00 0.00 0.00 100 1009.3
20260506171058 41 7 5.0 9.0 0.00 0.00 0.00 100 1009.3
20260506170558 41 8 5.0 10.0 0.00 0.00 0.00 100 1009.2
20260506170058 41 348 9.0 11.0 0.00 0.00 0.00 100 1009.2
20260506165558 41 1 7.0 10.0 0.00 0.00 0.00 100 1009.2
20260506165058 40 352 7.0 11.0 0.00 0.00 0.00 100 1009.1
20260506164558 41 344 11.0 11.0 0.00 0.00 0.00 100 1009.1
20260506164058 41 5 8.0 10.0 0.00 0.00 0.00 100 1009.1
20260506163558 41 348 9.0 10.0 0.00 0.00 0.00 100 1009.0
20260506163058 41 18 9.0 11.0 0.00 0.00 0.00 100 1009.0
20260506162558 41 352 10.0 11.0 0.00 0.00 0.00 100 1008.9
20260506162058 41 5 7.0 11.0 0.00 0.00 0.00 100 1008.9
20260506161558 40 358 10.0 12.0 0.00 0.00 0.00 100 1008.9
20260506161059 40 355 11.0 12.0 0.00 0.00 0.00 100 1008.8
20260506160559 40 9 8.0 13.0 0.00 0.00 0.00 100 1008.7
20260506160059 41 352 12.0 13.0 0.00 0.00 0.00 100 1008.7
20260506155559 41 343 9.0 12.0 0.00 0.00 0.00 100 1008.6
20260506155059 41 5 8.0 12.0 0.00 0.00 0.00 100 1008.5
20260506154559 41 1 8.0 13.0 0.00 0.00 0.00 100 1008.5
20260506154059 41 8 9.0 12.0 0.00 0.00 0.00 100 1008.5
20260506153559 41 8 8.0 12.0 0.00 0.00 0.00 100 1008.4
20260506153059 41 354 10.0 13.0 0.00 0.00 0.00 100 1008.3
20260506152559 41 343 11.0 13.0 0.00 0.00 0.00 100 1008.2
20260506152059 40 352 10.0 12.0 0.00 0.00 0.00 100 1008.2
20260506151559 41 12 9.0 12.0 0.00 0.00 0.00 100 1008.0
20260506151059 41 352 10.0 11.0 0.00 0.00 0.00 100 1007.9
20260506150559 41 343 10.0 12.0 0.00 0.00 0.00 100 1007.9
20260506150059 41 358 9.0 12.0 0.00 0.00 0.00 100 1008.0
20260506145559 41 352 10.0 13.0 0.00 0.00 0.00 100 1008.0
20260506145059 41 336 9.0 12.0 0.00 0.00 0.00 100 1008.0
20260506144559 41 4 9.0 13.0 0.00 0.00 0.00 100 1008.1
20260506144059 41 354 9.0 12.0 0.00 0.00 0.00 100 1008.1
20260506143559 41 8 8.0 11.0 0.00 0.00 0.00 100 1008.0
20260506143059 41 11 7.0 13.0 0.00 0.00 0.00 100 1008.1
20260506142559 41 343 11.0 13.0 0.00 0.00 0.00 100 1008.0
20260506142059 41 0 10.0 13.0 0.00 0.00 0.00 100 1008.1
20260506141559 41 338 9.0 11.0 0.00 0.00 0.00 100 1008.0
20260506141059 41 347 10.0 11.0 0.00 0.00 0.00 100 1008.1
20260506140559 42 14 6.0 10.0 0.00 0.00 0.00 100 1008.1
20260506140059 42 4 8.0 10.0 0.00 0.00 0.00 100 1008.1
20260506135559 41 5 8.0 11.0 0.00 0.00 0.00 100 1008.1
20260506135059 41 352 9.0 12.0 0.00 0.00 0.00 100 1008.0
20260506134559 41 345 10.0 13.0 0.00 0.00 0.00 100 1008.0
20260506134059 41 358 10.0 13.0 0.00 0.00 0.00 100 1008.0
20260506133559 41 12 10.0 13.0 0.00 0.00 0.00 100 1008.0